CZ-2D R/B

基本信息
目录编号:
59286
目录名称:
CZ-2D R/B
国际标识:
2024-052G
轨道中心:
EARTH
物体状态:
已陨落(2024-03-23)
发射日期:
2024-03-21 UTC
国别:
中国 (CN)
轨道信息
数据来源: 国际轨道数据
星历时间: 2024-03-23T08:43:19+0800
半长轴: 6525.488km
偏心率: 0.0008698
轨道倾角: 49.991°
近地点辐角: 282.529°
升交点赤经: 221.487°
平近点角: 210.120°
近地点: 141.677km
远地点: 153.029km
周期: 87.434分钟
每日圈数: 16.469611
详细信息
发射场:
JSC
轨道高度:
LEO
数据来源:
AOE Integration Group
参考系:
TEME
时间系统:
UTC
历元类型:
SGP4
2D轨道图
3D轨道图
轨道高度分析图
轨道倾角分析图
轨道综合分析图
查看轨道综合分析图